FW8034 Weather Reports


time (UTC)temp
C
wind
direction
speed
KPH
gust
KPH
rain 1hr
cm
rain 24hr
cm
rain mn
cm
humidity
%
barometer
mb
20260906172305 29 60 8.0 12.9 0.00 0.00 0.00 81 1053.5
20260906171756 28 306 1.6 3.2 0.00 0.00 0.00 83 1053.3
20260906171251 29 96 8.0 11.3 0.00 0.00 0.00 81 1053.4
20260906170747 29 8 1.6 3.2 0.00 0.00 0.00 81 1053.4
20260906170242 29 354 3.2 4.8 0.00 0.00 0.00 82 1053.3
20260906165733 28 105 9.7 12.9 0.00 0.00 0.00 81 1053.5
20260906165232 29 344 1.6 3.2 0.00 0.00 0.00 83 1053.5
20260906164732 29 266 1.6 3.2 0.00 0.00 0.00 81 1053.5
20260906164227 29 80 3.2 8.0 0.00 0.00 0.00 81 1053.4
20260906163723 28 268 1.6 4.8 0.00 0.00 0.00 82 1053.3
20260906163219 28 261 1.6 3.2 0.00 0.00 0.00 84 1053.3
20260906162715 28 251 3.2 3.2 0.00 0.00 0.00 81 1053.1
20260906162210 28 128 3.2 14.5 0.00 0.00 0.00 86 1053.4
20260906161705 29 91 8.0 12.9 0.00 0.00 0.00 82 1053.3
20260906161204 28 87 3.2 4.8 0.00 0.00 0.00 82 1053.4
20260906160703 29 218 3.2 3.2 0.00 0.00 0.00 80 1053.3
20260906160203 28 72 1.6 3.2 0.00 0.00 0.00 82 1053.2
20260906155700 28 157 1.6 3.2 0.00 0.00 0.00 83 1053.5
20260906155156 28 72 3.2 8.0 0.00 0.00 0.00 83 1053.8
20260906154651 27 347 1.6 3.2 0.00 0.00 0.00 84 1053.7
20260906154151 27 32 1.6 4.8 0.00 0.00 0.00 85 1053.5
20260906153649 27 231 0.0 4.8 0.00 0.00 0.00 84 1053.7
20260906153144 27 304 0.0 3.2 0.00 0.00 0.00 84 1053.8
20260906152639 27 3 0.0 3.2 0.00 0.00 0.00 87 1053.7
20260906152139 27 298 0.0 1.6 0.00 0.00 0.00 85 1053.6
20260906151634 26 273 1.6 3.2 0.00 0.00 0.00 87 1053.8
20260906151130 26 306 3.2 4.8 0.00 0.00 0.00 87 1053.9
20260906150625 26 303 0.0 1.6 0.00 0.00 0.00 88 1053.9
20260906150120 26 76 3.2 4.8 0.00 0.00 0.00 90 1053.8
20260906145619 26 328 1.6 4.8 0.00 0.00 0.00 90 1053.7
20260906145114 25 13 1.6 3.2 0.00 0.00 0.00 89 1053.6
20260906144608 26 32 1.6 3.2 0.00 0.00 0.00 89 1053.7
20260906144103 25 247 1.6 3.2 0.00 0.00 0.00 91 1053.6
20260906143558 25 330 1.6 1.6 0.00 0.00 0.00 91 1053.8
20260906143055 25 313 0.0 3.2 0.00 0.00 0.00 92 1053.8
20260906142554 25 222 1.6 3.2 0.00 0.00 0.00 90 1054.0
20260906142049 25 315 1.6 1.6 0.00 0.00 0.00 90 1054.0
20260906141548 25 268 0.0 0.0 0.00 0.00 0.00 90 1054.0
20260906141044 25 349 1.6 4.8 0.00 0.00 0.00 92 1054.0
20260906140543 25 324 1.6 3.2 0.00 0.00 0.00 90 1054.0
20260906140037 25 357 1.6 4.8 0.00 0.00 0.00 90 1054.1
20260906135534 25 305 1.6 1.6 0.00 0.00 0.00 91 1053.8
20260906135030 25 301 0.0 3.2 0.00 0.00 0.00 89 1053.8
20260906134525 25 300 0.0 1.6 0.00 0.00 0.00 89 1054.0
20260906134020 25 339 1.6 1.6 0.00 0.00 0.00 89 1054.0
20260906133516 25 303 1.6 1.6 0.00 0.00 0.00 92 1053.9
20260906133011 24 292 1.6 3.2 0.00 0.00 0.00 92 1053.7
20260906132507 24 355 0.0 3.2 0.00 0.00 0.00 93 1053.7
20260906132002 24 61 3.2 4.8 0.00 0.00 0.00 92 1053.9
20260906131457 24 331 0.0 3.2 0.00 0.00 0.00 94 1053.7
20260906130953 23 312 1.6 3.2 0.00 0.00 0.00 94 1053.8
20260906130451 23 75 1.6 3.2 0.00 0.00 0.00 96 1053.9
20260906125946 23 334 1.6 4.8 0.00 0.00 0.00 95 1053.8
20260906125444 23 300 0.0 0.0 0.00 0.00 0.00 95 1053.9
20260906124943 23 330 0.0 3.2 0.00 0.00 0.00 95 1053.8
20260906124439 23 310 0.0 1.6 0.00 0.00 0.00 96 1053.7
20260906123939 23 305 0.0 1.6 0.00 0.00 0.00 96 1053.5
20260906123439 22 307 0.0 0.0 0.00 0.00 0.00 97 1053.5
20260906122933 22 281 1.6 1.6 0.00 0.00 0.00 98 1053.3
20260906122428 22 43 1.6 3.2 0.00 0.00 0.00 98 1053.4
20260906121925 22 335 1.6 4.8 0.00 0.00 0.00 98 1053.5
20260906121421 22 304 0.0 1.6 0.00 0.00 0.00 98 1053.3
20260906120917 22 286 0.0 1.6 0.00 0.00 0.00 98 1053.2
20260906120412 22 322 0.0 3.2 0.00 0.00 0.00 98 1053.2
20260906115908 22 303 1.6 1.6 0.00 0.00 0.00 98 1053.0
20260906115404 22 322 0.0 0.0 0.00 0.00 0.00 98 1052.9
20260906114903 22 301 0.0 0.0 0.00 0.00 0.00 97 1053.1
20260906114358 22 310 0.0 1.6 0.00 0.00 0.00 97 1052.9
20260906113854 22 323 1.6 3.2 0.00 0.00 0.00 97 1052.9
20260906113352 22 9 1.6 1.6 0.00 0.00 0.00 97 1052.6
20260906112848 22 311 1.6 3.2 0.00 0.00 0.00 97 1052.6
20260906112343 22 332 0.0 3.2 0.00 0.00 0.00 97 1052.6
20260906111838 22 73 1.6 4.8 0.00 0.00 0.00 97 1052.6
20260906111337 22 97 3.2 8.0 0.00 0.00 0.00 97 1052.5
20260906110827 22 26 1.6 4.8 0.00 0.00 0.00 97 1052.6
20260906110323 22 93 3.2 4.8 0.00 0.00 0.00 97 1052.6
20260906105822 22 348 0.0 3.2 0.00 0.00 0.00 97 1052.4
20260906105318 22 6 1.6 3.2 0.00 0.00 0.00 97 1052.7
20260906104813 22 30 1.6 3.2 0.00 0.00 0.00 97 1052.8
20260906104311 22 49 1.6 3.2 0.00 0.00 0.00 97 1052.7
20260906103809 22 1 3.2 8.0 0.00 0.00 0.00 96 1052.8
20260906103303 22 69 3.2 3.2 0.00 0.00 0.00 97 1052.9
20260906102759 22 50 1.6 3.2 0.00 0.00 0.00 97 1052.8
20260906102258 22 13 3.2 4.8 0.00 0.00 0.00 97 1052.9
20260906101754 22 309 0.0 3.2 0.00 0.00 0.00 97 1052.9
20260906101248 22 65 3.2 4.8 0.00 0.00 0.00 97 1052.9
20260906100744 23 83 3.2 3.2 0.00 0.00 0.00 97 1052.8
20260906100243 23 173 4.8 4.8 0.00 0.00 0.00 96 1052.8
20260906095739 23 209 3.2 4.8 0.00 0.00 0.00 97 1052.7
20260906095234 23 114 6.4 8.0 0.00 0.00 0.00 97 1052.6
20260906094733 23 336 1.6 3.2 0.00 0.00 0.00 97 1052.9
20260906094228 23 326 0.0 1.6 0.00 0.00 0.00 97 1052.7
20260906093724 23 296 0.0 1.6 0.00 0.00 0.00 97 1052.6
20260906093214 23 76 3.2 4.8 0.00 0.00 0.00 97 1052.5
20260906092709 23 328 0.0 1.6 0.00 0.00 0.00 97 1052.4
20260906092208 23 16 3.2 3.2 0.00 0.00 0.00 97 1052.5
20260906091705 23 311 0.0 0.0 0.00 0.00 0.00 97 1052.5
20260906091201 23 311 0.0 0.0 0.00 0.00 0.00 97 1052.3
20260906090657 23 52 3.2 4.8 0.00 0.00 0.00 97 1052.3
20260906090155 23 321 0.0 1.6 0.00 0.00 0.00 97 1052.5
20260906085655 23 346 3.2 4.8 0.00 0.00 0.00 97 1052.3
20260906085149 23 10 0.0 4.8 0.00 0.00 0.00 96 1052.2
20260906084644 23 39 4.8 9.7 0.00 0.00 0.00 96 1052.1
20260906084143 23 144 3.2 8.0 0.00 0.00 0.00 96 1052.0
20260906083638 23 108 4.8 8.0 0.00 0.00 0.00 96 1052.1
20260906083133 23 122 4.8 8.0 0.00 0.00 0.00 97 1052.2
20260906082629 23 47 3.2 4.8 0.00 0.00 0.00 97 1052.1
20260906082124 23 87 4.8 4.8 0.00 0.00 0.00 97 1052.2
20260906081620 23 274 1.6 3.2 0.00 0.00 0.00 98 1052.2
20260906081115 23 92 1.6 3.2 0.00 0.00 0.00 97 1052.3
20260906080611 23 83 3.2 4.8 0.00 0.00 0.00 97 1052.2
20260906080107 23 91 4.8 11.3 0.00 0.00 0.00 97 1052.0
20260906075601 23 79 6.4 11.3 0.00 0.00 0.00 97 1052.0
20260906075055 23 346 1.6 4.8 0.00 0.00 0.00 97 1051.9
20260906074550 23 79 9.7 14.5 0.00 0.00 0.00 97 1051.9
20260906074043 23 90 6.4 9.7 0.00 0.00 0.00 97 1052.1
20260906073538 24 61 6.4 8.0 0.00 0.00 0.00 97 1052.1
20260906073034 24 119 8.0 12.9 0.00 0.00 0.00 97 1052.0
20260906072529 24 88 3.2 4.8 0.00 0.00 0.00 97 1052.0
20260906072026 24 79 4.8 8.0 0.00 0.00 0.00 97 1052.1
20260906071521 24 75 9.7 12.9 0.00 0.00 0.00 97 1052.1
20260906071016 24 58 3.2 9.7 0.00 0.00 0.00 97 1052.2
20260906070513 25 87 4.8 8.0 0.00 0.00 0.00 97 1052.1
20260906070008 25 79 3.2 12.9 0.00 0.00 0.00 97 1052.2
20260906065508 25 77 3.2 9.7 0.00 0.00 0.00 98 1051.9
20260906065003 25 82 3.2 4.8 0.00 0.00 0.00 98 1051.9
20260906064459 25 26 3.2 4.8 0.00 0.00 0.00 98 1052.0
20260906063954 25 103 4.8 8.0 0.00 0.00 0.00 98 1052.1
20260906063450 25 112 3.2 8.0 0.00 0.00 0.00 98 1052.1
20260906062949 25 40 3.2 4.8 0.00 0.00 0.00 98 1052.1
20260906062445 25 33 1.6 8.0 0.00 0.00 0.00 98 1052.2
20260906061940 25 13 3.2 8.0 0.00 0.00 0.00 98 1052.1
20260906061435 25 83 1.6 3.2 0.00 0.00 0.00 98 1052.2
20260906060930 25 99 3.2 3.2 0.00 0.00 0.00 98 1052.1
20260906060427 25 72 3.2 8.0 0.00 0.00 0.00 98 1052.0
20260906055923 25 287 1.6 4.8 0.00 0.00 0.00 98 1052.2
20260906055419 25 77 1.6 4.8 0.00 0.00 0.00 97 1052.0
20260906054914 25 65 4.8 12.9 0.00 0.00 0.00 97 1052.0
20260906054409 25 132 4.8 8.0 0.00 0.00 0.00 97 1052.1
20260906053905 25 7 1.6 9.7 0.00 0.00 0.00 97 1051.9
20260906053401 25 65 8.0 11.3 0.00 0.00 0.00 96 1052.1
20260906052856 26 85 3.2 9.7 0.00 0.00 0.00 96 1052.0
20260906052352 26 112 3.2 8.0 0.00 0.00 0.00 96 1052.0
20260906051849 26 84 8.0 12.9 0.00 0.00 0.00 96 1052.0
20260906051348 26 105 4.8 14.5 0.00 0.00 0.00 96 1052.0
20260906050845 26 100 4.8 8.0 0.00 0.00 0.00 95 1052.1
20260906050339 26 61 3.2 8.0 0.00 0.00 0.00 95 1052.4
20260906045838 26 91 4.8 4.8 0.00 0.00 0.00 95 1052.2
20260906045332 26 93 6.4 9.7 0.00 0.00 0.00 95 1052.2
20260906044829 26 80 6.4 8.0 0.00 0.00 0.00 95 1052.0
20260906044329 26 111 4.8 9.7 0.00 0.00 0.00 94 1052.0
20260906043826 26 64 4.8 9.7 0.00 0.00 0.00 94 1051.9
20260906043321 26 81 3.2 11.3 0.00 0.00 0.00 93 1051.8
20260906042820 26 102 8.0 11.3 0.00 0.00 0.00 94 1051.8
20260906042320 26 54 4.8 8.0 0.00 0.00 0.00 93 1051.7
20260906041815 26 67 3.2 4.8 0.00 0.00 0.00 93 1051.7
20260906041310 26 102 1.6 4.8 0.00 0.00 0.00 93 1051.7
20260906040805 26 106 6.4 8.0 0.00 0.00 0.00 93 1051.6
20260906040301 26 94 4.8 8.0 0.00 0.00 0.00 93 1051.7
20260906035756 26 48 6.4 9.7 0.00 0.00 0.00 92 1051.4
20260906035252 27 106 6.4 9.7 0.00 0.00 0.00 92 1051.7
20260906034752 27 96 4.8 8.0 0.00 0.00 0.00 92 1051.5
20260906034252 27 112 4.8 8.0 0.00 0.00 0.00 92 1051.3
20260906033748 27 113 4.8 8.0 0.00 0.00 0.00 92 1051.5
20260906033247 26 93 3.2 8.0 0.00 0.00 0.00 92 1051.5
20260906032744 27 86 3.2 4.8 0.00 0.00 0.00 92 1051.4
20260906032243 27 57 4.8 4.8 0.00 0.00 0.00 91 1051.6
20260906031738 27 102 4.8 4.8 0.00 0.00 0.00 91 1051.8
20260906031234 27 62 3.2 3.2 0.00 0.00 0.00 91 1051.5
20260906030729 27 81 3.2 3.2 0.00 0.00 0.00 90 1051.7
20260906030224 27 97 3.2 4.8 0.00 0.00 0.00 89 1051.6
20260906025723 27 78 1.6 3.2 0.00 0.00 0.00 89 1051.7
20260906025218 27 59 3.2 3.2 0.00 0.00 0.00 89 1051.4
20260906024717 27 66 1.6 3.2 0.00 0.00 0.00 89 1051.2
20260906024216 27 334 0.0 1.6 0.00 0.00 0.00 89 1051.4
20260906023713 27 95 3.2 3.2 0.00 0.00 0.00 90 1051.2
20260906023212 27 331 0.0 3.2 0.00 0.00 0.00 90 1050.9
20260906022707 27 54 3.2 3.2 0.00 0.00 0.00 90 1051.3
20260906022158 27 313 0.0 1.6 0.00 0.00 0.00 90 1050.9
20260906021654 27 318 0.0 1.6 0.00 0.00 0.00 90 1050.8
20260906021152 27 358 1.6 1.6 0.00 0.00 0.00 89 1050.8
20260906020647 27 310 0.0 0.0 0.00 0.00 0.00 89 1050.6
20260906020142 27 247 1.6 3.2 0.00 0.00 0.00 88 1050.5
20260906015636 27 122 3.2 3.2 0.00 0.00 0.00 87 1050.6
20260906015134 28 81 3.2 4.8 0.00 0.00 0.00 87 1050.5
20260906014629 28 103 4.8 8.0 0.00 0.00 0.00 87 1050.3
20260906014125 28 23 1.6 3.2 0.00 0.00 0.00 87 1050.4
20260906013620 28 91 3.2 4.8 0.00 0.00 0.00 86 1050.1
20260906013116 28 114 6.4 8.0 0.00 0.00 0.00 86 1050.1
20260906012611 28 77 4.8 4.8 0.00 0.00 0.00 85 1050.2
20260906012111 28 94 3.2 8.0 0.00 0.00 0.00 86 1050.0
20260906011607 28 134 4.8 4.8 0.00 0.00 0.00 86 1050.1
20260906011106 28 109 4.8 4.8 0.00 0.00 0.00 86 1050.0
20260906010602 28 86 4.8 4.8 0.00 0.00 0.00 85 1050.3
20260906010058 28 68 4.8 9.7 0.00 0.00 0.00 84 1050.1
20260906005557 29 73 4.8 8.0 0.00 0.00 0.00 84 1050.2
20260906005056 29 97 8.0 8.0 0.00 0.00 0.00 83 1050.0
20260906004556 30 95 4.8 4.8 0.00 0.00 0.00 82 1050.1
20260906004051 30 104 6.4 9.7 0.00 0.00 0.00 82 1050.1
20260906003540 30 95 6.4 9.7 0.00 0.00 0.00 81 1049.9
20260906003037 30 126 6.4 9.7 0.00 0.00 0.00 81 1050.1
20260906002536 30 127 4.8 8.0 0.00 0.00 0.00 81 1049.9
20260906002031 30 61 8.0 9.7 0.00 0.00 0.00 80 1050.1
20260906001526 30 104 6.4 9.7 0.00 0.00 0.00 79 1049.9
20260906001021 30 98 6.4 8.0 0.00 0.00 0.00 79 1049.9
20260906000517 31 90 4.8 16.1 0.00 0.00 0.00 78 1050.2
20260906000012 31 108 6.4 12.9 0.00 0.00 0.00 77 1049.9
20260905235506 31 107 4.8 8.0 0.00 0.00 0.00 78 1050.0
20260905235001 31 120 8.0 14.5 0.00 0.00 0.00 77 1049.9
20260905234456 31 89 6.4 11.3 0.00 0.00 0.00 78 1049.9
20260905233955 31 100 6.4 12.9 0.00 0.00 0.00 78 1049.9
20260905233452 31 117 11.3 14.5 0.00 0.00 0.00 77 1049.8
20260905232950 31 101 6.4 9.7 0.00 0.00 0.00 77 1049.8
20260905232447 31 139 6.4 16.1 0.00 0.00 0.00 77 1049.9
20260905231942 31 46 12.9 14.5 0.00 0.00 0.00 76 1049.9
20260905231437 31 84 3.2 12.9 0.00 0.00 0.00 76 1049.7
20260905230928 31 67 6.4 14.5 0.00 0.00 0.00 75 1049.8
20260905230426 31 100 6.4 12.9 0.00 0.00 0.00 76 1049.8
20260905225925 31 107 9.7 17.7 0.00 0.00 0.00 76 1049.8
20260905225420 31 104 11.3 14.5 0.00 0.00 0.00 76 1049.5
20260905224915 32 110 12.9 16.1 0.00 0.00 0.00 74 1049.8
20260905224411 32 105 11.3 14.5 0.00 0.00 0.00 74 1049.7
20260905223905 32 128 8.0 16.1 0.00 0.00 0.00 75 1049.6
20260905223403 32 83 8.0 12.9 0.00 0.00 0.00 74 1049.9
20260905222857 32 91 11.3 12.9 0.00 0.00 0.00 74 1049.6
20260905222356 31 67 9.7 12.9 0.00 0.00 0.00 74 1049.7
20260905221852 31 78 6.4 16.1 0.00 0.00 0.00 75 1049.6
20260905221349 32 110 12.9 16.1 0.00 0.00 0.00 74 1049.4
20260905220844 32 93 8.0 16.1 0.00 0.00 0.00 75 1049.7
20260905220341 32 95 12.9 16.1 0.00 0.00 0.00 74 1049.9
20260905215834 32 87 9.7 14.5 0.00 0.00 0.00 74 1049.8
20260905215330 32 99 11.3 12.9 0.00 0.00 0.00 72 1049.8
20260905214827 32 63 6.4 12.9 0.00 0.00 0.00 73 1049.7
20260905214321 32 95 11.3 12.9 0.00 0.00 0.00 72 1049.7
20260905213816 32 69 8.0 12.9 0.00 0.00 0.00 73 1049.9
20260905213312 32 104 4.8 12.9 0.00 0.00 0.00 75 1050.0
20260905212807 32 124 6.4 11.3 0.00 0.00 0.00 74 1050.1
20260905212306 32 134 8.0 11.3 0.00 0.00 0.00 74 1049.9
20260905211802 32 113 8.0 9.7 0.00 0.00 0.00 72 1050.0
20260905211256 32 100 11.3 14.5 0.00 0.00 0.00 72 1050.1
20260905210753 32 120 9.7 12.9 0.00 0.00 0.00 71 1050.2
20260905210253 32 79 8.0 12.9 0.00 0.00 0.00 72 1050.3
20260905205751 32 92 8.0 14.5 0.00 0.00 0.00 72 1050.1
20260905205246 32 120 8.0 11.3 0.00 0.00 0.00 73 1049.7
20260905204746 32 98 11.3 17.7 0.00 0.00 0.00 73 1049.7
20260905204242 32 65 14.5 17.7 0.00 0.00 0.00 73 1049.6
20260905203741 32 103 11.3 14.5 0.00 0.00 0.00 74 1049.6
20260905203237 32 126 8.0 22.5 0.00 0.00 0.00 74 1049.7
20260905202732 32 103 9.7 12.9 0.00 0.00 0.00 74 1049.8
20260905202227 32 122 8.0 16.1 0.00 0.00 0.00 75 1049.8
20260905201722 32 104 9.7 16.1 0.00 0.00 0.00 77 1049.9
20260905201217 32 91 14.5 14.5 0.00 0.00 0.00 73 1050.0
20260905200712 32 93 8.0 12.9 0.00 0.00 0.00 77 1050.1
20260905200208 31 95 8.0 12.9 0.00 0.00 0.00 76 1050.2
20260905195706 32 73 8.0 16.1 0.00 0.00 0.00 76 1050.5
20260905195201 32 95 9.7 11.3 0.00 0.00 0.00 76 1050.4
20260905194656 32 24 4.8 9.7 0.00 0.00 0.00 76 1050.3
20260905194155 32 230 4.8 9.7 0.00 0.00 0.00 77 1050.4
20260905193650 32 105 8.0 11.3 0.00 0.00 0.00 78 1050.4
20260905193145 32 89 9.7 12.9 0.00 0.00 0.00 77 1050.8
20260905192640 31 87 8.0 14.5 0.00 0.00 0.00 78 1050.7
20260905192137 31 106 4.8 11.3 0.00 0.00 0.00 78 1050.8
20260905191637 32 95 11.3 12.9 0.00 0.00 0.00 77 1050.9
20260905191134 31 114 9.7 11.3 0.00 0.00 0.00 75 1051.2
20260905190632 31 122 11.3 14.5 0.00 0.00 0.00 75 1051.3
20260905190127 31 7 3.2 12.9 0.00 0.00 0.00 78 1051.7
20260905185625 31 104 6.4 11.3 0.00 0.00 0.00 78 1051.7
20260905185120 31 336 3.2 8.0 0.00 0.00 0.00 77 1051.6
20260905184615 31 94 8.0 11.3 0.00 0.00 0.00 78 1051.8
20260905184114 31 99 4.8 9.7 0.00 0.00 0.00 78 1051.9
20260905183613 31 109 8.0 12.9 0.00 0.00 0.00 79 1051.9
20260905183108 31 86 3.2 9.7 0.00 0.00 0.00 80 1051.8
20260905182607 30 94 6.4 9.7 0.00 0.00 0.00 79 1051.9
20260905182102 31 25 1.6 11.3 0.00 0.00 0.00 81 1051.9
20260905181602 30 85 6.4 11.3 0.00 0.00 0.00 80 1051.9
20260905181101 31 100 3.2 8.0 0.00 0.00 0.00 81 1052.2
20260905180556 30 193 1.6 4.8 0.00 0.00 0.00 81 1051.9
20260905180051 30 101 8.0 11.3 0.00 0.00 0.00 81 1051.9
20260905175550 30 13 6.4 12.9 0.00 0.00 0.00 80 1052.1
20260905175046 31 62 4.8 8.0 0.00 0.00 0.00 80 1052.0
20260905174542 30 274 1.6 4.8 0.00 0.00 0.00 82 1051.9
20260905174037 31 26 1.6 11.3 0.00 0.00 0.00 80 1052.0
20260905173534 31 43 4.8 12.9 0.00 0.00 0.00 79 1052.0
20260905173029 31 10 6.4 9.7 0.00 0.00 0.00 78 1052.0